TimeEDT,TemperatureF,Dew PointF,Humidity,Sea Level PressureIn,VisibilityMPH,Wind Direction,Wind SpeedMPH,Gust SpeedMPH,PrecipitationIn,Events,Conditions,WindDirDegrees,DateUTC
12:51 AM,48.9,37.9,66,29.78,10.0,WSW,5.8,-,N/A,,Overcast,250,2012-11-02 04:51:00
1:51 AM,48.9,37.0,64,29.79,10.0,Variable,5.8,-,N/A,,Overcast,0,2012-11-02 05:51:00
2:51 AM,48.9,37.9,66,29.79,10.0,West,4.6,-,N/A,,Overcast,280,2012-11-02 06:51:00
3:51 AM,46.9,37.0,68,29.80,10.0,West,6.9,-,N/A,,Overcast,260,2012-11-02 07:51:00
4:51 AM,46.0,35.1,66,29.80,10.0,West,5.8,-,N/A,,Partly Cloudy,260,2012-11-02 08:51:00
5:51 AM,44.1,35.1,71,29.80,10.0,WSW,5.8,-,N/A,,Clear,250,2012-11-02 09:51:00
6:51 AM,43.0,35.1,74,29.82,10.0,WSW,10.4,-,N/A,,Mostly Cloudy,240,2012-11-02 10:51:00
7:51 AM,42.1,34.0,73,29.83,10.0,WSW,5.8,-,N/A,,Clear,240,2012-11-02 11:51:00
8:51 AM,46.9,32.0,56,29.83,10.0,West,6.9,-,N/A,,Mostly Cloudy,260,2012-11-02 12:51:00
9:51 AM,51.1,30.9,46,29.81,10.0,Variable,3.5,-,N/A,,Scattered Clouds,0,2012-11-02 13:51:00
10:51 AM,54.0,28.9,38,29.82,10.0,West,10.4,19.6,N/A,,Partly Cloudy,260,2012-11-02 14:51:00
11:51 AM,57.0,30.0,36,29.81,10.0,West,10.4,19.6,N/A,,Partly Cloudy,260,2012-11-02 15:51:00
12:51 PM,57.9,30.0,35,29.78,10.0,WNW,13.8,24.2,N/A,,Mostly Cloudy,290,2012-11-02 16:51:00
1:51 PM,57.0,30.0,36,29.77,10.0,West,9.2,19.6,N/A,,Scattered Clouds,270,2012-11-02 17:51:00
2:51 PM,55.9,30.9,39,29.76,10.0,West,8.1,19.6,N/A,,Overcast,270,2012-11-02 18:51:00
3:51 PM,55.9,30.0,37,29.77,10.0,WNW,8.1,21.9,N/A,,Mostly Cloudy,300,2012-11-02 19:51:00
4:51 PM,57.0,28.0,33,29.79,10.0,Variable,4.6,-,N/A,,Clear,0,2012-11-02 20:51:00
5:51 PM,55.0,28.0,35,29.82,10.0,Variable,5.8,-,N/A,,Clear,0,2012-11-02 21:51:00
6:51 PM,53.1,30.0,41,29.86,10.0,Variable,3.5,-,N/A,,Clear,0,2012-11-02 22:51:00
7:51 PM,52.0,32.0,47,29.88,10.0,Calm,Calm,-,N/A,,Clear,0,2012-11-02 23:51:00
8:51 PM,48.0,37.0,66,29.89,10.0,Calm,Calm,-,N/A,,Clear,0,2012-11-03 00:51:00
9:51 PM,51.1,33.1,50,29.92,10.0,North,9.2,18.4,N/A,,Clear,350,2012-11-03 01:51:00
10:51 PM,50.0,32.0,50,29.93,10.0,NNW,4.6,-,N/A,,Clear,340,2012-11-03 02:51:00
11:51 PM,50.0,33.1,52,29.93,10.0,North,9.2,-,N/A,,Clear,360,2012-11-03 03:51:00